This is the latest recevied weather packets stored in our database for station/object SR8WXL-13. If no packets are shown the sender has not sent any weather packets the latest 10 day(s).
| Time | Temp. | Humidity | Pressure | Rain* | Wind** | Luminosity | Snow |
|---|---|---|---|---|---|---|---|
| 1788137348 | 17.22° C | 80% | 1031 hPa | 0 mm | - | - | - |
| 1788136473 | 16.11° C | 84% | 1031.2 hPa | 0 mm | - | - | - |
| 1788135605 | 17.22° C | 78% | 1031.3 hPa | 0 mm | - | - | - |
| 1788134837 | 17.22° C | 80% | 1031.4 hPa | 0 mm | - | - | - |
| 1788134063 | 16.11° C | 81% | 1031.3 hPa | 0 mm | - | - | - |
| 1788133328 | 15° C | 88% | 1031.4 hPa | 0 mm | - | - | - |
| 1788132578 | 15° C | 89% | 1031.5 hPa | 0 mm | - | - | - |
| 1788131754 | 15° C | 87% | 1031.4 hPa | 0 mm | - | - | - |
| 1788130919 | 15° C | 89% | 1031.4 hPa | 0 mm | - | - | - |
| 1788130118 | 15° C | 89% | 1031.2 hPa | 0 mm | - | - | - |
| 1788129355 | 13.89° C | 91% | 1031.3 hPa | 0 mm | - | - | - |
| 1788128523 | 13.89° C | 91% | 1031.3 hPa | 0 mm | - | - | - |
| 1788127718 | 13.89° C | 92% | 1031.6 hPa | 0 mm | - | - | - |
| 1788126913 | 13.89° C | 90% | 1031.5 hPa | 0 mm | - | - | - |
| 1788126194 | 15° C | 89% | 1031.4 hPa | 0 mm | - | - | - |
| 1788125339 | 15° C | 90% | 1031.6 hPa | 0 mm | - | - | - |
| 1788124555 | 13.89° C | 92% | 1031.5 hPa | 0 mm | - | - | - |
| 1788123783 | 13.89° C | 92% | 1031.5 hPa | 0 mm | - | - | - |
| 1788122985 | 13.89° C | 92% | 1031.3 hPa | 0 mm | - | - | - |
| 1788122089 | 15° C | 91% | 1031.3 hPa | 0 mm | - | - | - |
| 1788121328 | 15° C | 90% | 1031.4 hPa | 0 mm | - | - | - |
| 1788120575 | 15° C | 90% | 1031.4 hPa | 0 mm | - | - | - |
| 1788119793 | 15° C | 90% | 1031.7 hPa | 0 mm | - | - | - |
| 1788118943 | 15° C | 88% | 1031.4 hPa | 0 mm | - | - | - |
| 1788118111 | 16.11° C | 86% | 1031.7 hPa | 0 mm | - | - | - |
* Rain latest hour (hover to see other rain measurements)
** Current wind speed in m/s (hover to see current wind gust speed)